Location: Prairie View Elementary School
(39.8322°N, 99.5698°W)
Time: 17:49:37
(UTC+00:00)

ALOS - Pass Details

Date: 08 December 2019
Orbit: 684 x 685 km, 97.8° (Epoch: 24 January)

Event Time Altitude Azimuth Distance (km) Brightness Sun altitude
Rises 11:36:58 0° 18° (NNE) 3,059 5.7 -24.2°
Reaches altitude 10° 11:39:17 10° 23° (NNE) 2,139 4.9 -23.8°
Maximum altitude 11:43:50 50° 99° (E) 876 3.1 -22.9°
Drops below altitude 10° 11:48:20 10° 175° (S) 2,122 5.0 -22.1°
Sets 11:50:38 0° 180° (S) 3,033 5.7 -21.6°
